Location: Althorst
(53.6379°N, 10.7715°E)
Time: 05:42:15
(UTC+00:00)

Cosmos 1943 Rocket - Pass Details

Date: 10 December 2019
Orbit: 812 x 844 km, 71.0° (Epoch: 17 January)

Event Time Altitude Azimuth Distance (km) Brightness Sun altitude
Rises 16:10:20 0° 325° (NW) 3,413 5.5 -10.0°
Reaches altitude 10° 16:13:13 10° 339° (NNW) 2,473 4.6 -10.4°
Maximum altitude 16:17:56 26° 35° (NE) 1,606 3.2 -11.0°
Enters shadow 16:21:41 14° 84° (E) 2,191 3.8 -11.5°
